Portada
METAR-TAF:

METAR-TAF

Aeroports :

Groote Eylandt, Austràlia

latitud: 13-58-30S, longitud: 136-27-36E, altitud: 16 m

Observació

L'informe es va fer fa 1 hora i 21 minuts, a les 13:00 UTC
Vent 6 kt del Est/Nord-Est
Temperatura 26°C
Humitat 94%
Pressió 1007 hPa
Visibilitat 10 km o més
Cel ennuvolat a una alçada de 9100 ft

METAR: YGTE 261300Z AUTO 07006KT 9999 // BKN091 26/25 Q1007

Hora: 23:51 (14:21 UTC)


TAF: manca

Observacions i pronòstics meteorològics de més de 4000 aeroports (METAR i TAF).

Les estacions disponibles són els punts grocs i vermells al mapa.

Posi el ratolí al punt desitjat per veure el nom de l'estació.

Feu clic per veure les observacions i els pronòstics meteorològics.

Per canviar el mapa: feu clic els botons verds amb una creu de color negre per apropar; al botó verd amb un guió per allunyar la imatge; o en les fletxes verdes per a mapes adjacents.


METAR-TAF: